Regional Weather Roundup
Issued by NWS

Home | Current Version | Previous Version | Text Only | Print | Product List | Glossary On
Versions: 1 2 3 4 5 6 7 8 9 10 11 12 13 14 15 16 17 18 19 20 21 22 23 24 25 26 27 28 29 30 31 32 33 34 35 36 37 38 39 40 41 42 43 44 45 46 47 48 49 50
000
ASUS44 KLUB 210010
RWRTX
WEST TEXAS WEATHER ROUNDUP
NATIONAL WEATHER SERVICE LUBBOCK TX
700 PM CDT SAT SEP 20 2014

NOTE: "FAIR" INDICATES FEW OR NO CLOUDS BELOW 12,000 FEET WITH NO
SIGNIFICANT WEATHER AND/OR OBSTRUCTIONS TO VISIBILITY.

TXZ004-006>008-010-012-014-016-OKZ002-210100-
TEXAS PANHANDLE/OKLAHOMA PANHANDLE

CITY           SKY/WX    TMP DP  RH WIND       PRES   REMARKS
AMARILLO       CLEAR     81  63  54 E7        30.07S
BORGER         MOCLDY    85  59  41 CALM      30.04R
CANADIAN       CLEAR     86  66  50 S7        30.00R
DALHART        CLEAR     83  60  45 S9        30.10R
DUMAS          PTCLDY    84  61  46 S3        30.08R
GUYMON         CLEAR     87  61  41 S6        30.01S
HEREFORD       PTCLDY    80  67  64 E7        30.08S
PAMPA          PTCLDY    82  60  47 SE7       30.06S
PERRYTON       CLEAR     87  58  37 S8        30.02F
$$

TXZ026-029-035-045-048-210100-
SOUTHERN PANHANDLE/SOUTH PLAINS/ROLLING PLAINS

CITY           SKY/WX    TMP DP  RH WIND       PRES   REMARKS
CHILDRESS      CLEAR     82  71  69 SE6       30.00S
SEMINOLE       CLOUDY    74  70  86 E8G16     30.04R
LUBBOCK        PTCLDY    76  67  73 SE10      30.04F
PLAINVIEW      MOCLDY    75  69  80 SE5       30.05S
SNYDER         PTCLDY    78  71  77 E6        30.02R
$$

TXZ052-054-060>062-072-078-127-140-154-169-210100-
PERMIAN BASIN/CONCHO VALLEY/BIG COUNTRY/EDWARDS PLATEAU

CITY           SKY/WX    TMP DP  RH WIND       PRES   REMARKS
ABILENE        RAIN      76  72  87 E8        29.99R
BIG SPRING     CLOUDY    78  72  82 NE14      30.02R THUNDER
BRADY          CLEAR     81  70  69 E6        29.98R
BROWNWOOD      MOCLDY    79  70  73 SE7       29.97S
JUNCTION       CLOUDY    84  67  56 E6        29.96R
MIDLAND        CLOUDY    80  71  74 SE14      29.99R
ODESSA         MOCLDY    80  68  66 SE10      30.00R
SAN ANGELO     MOCLDY    79  71  76 S5        29.97R
SONORA         CLOUDY    81  70  69 E6        30.03R
SWEETWATER     PTCLDY    80  69  67 E5        30.04R
WINK           MOSUNNY   84  67  56 E5        29.95S
$$

TXZ055-058-074-075-080-082-210100-
FAR WEST/SOUTHWEST MOUNTAINS/TRANS PECOS

CITY           SKY/WX    TMP DP  RH WIND       PRES   REMARKS
ALPINE         PTSUNNY   73  65  75 CALM      30.13R
DRYDEN           N/A     81  73  76 E8        29.93S
EL PASO        MOSUNNY   87  60  40 NE7       29.99R
FORT STOCKTON  MOSUNNY   81  68  64 SE10      29.98R
GUADALUPE PASS MOSUNNY   71  64  78 NE16        N/A
MARFA          PTSUNNY   75  66  73 E10       30.10S
PECOS          MOSUNNY   82  67  61 N8        29.95S
PRESIDIO       FAIR      87  64  46 NE8       29.92F
$$

TXZ014-016-019-021>030-083-210100
TEXAS TECH WEST TEXAS MESONET/TEXAS PANHANDLE/NORTHERN SOUTH PLAINS

CITY           SKY/WX    TMP DP  RH WIND       PRES   REMARKS
ABERNATHY 5ENE   N/A     75  66  72 SE6       30.07S
AMARILLO 9NNE    N/A     81  63  53 E6        30.06R
AMARILLO 7SSE    N/A     80  64  58 E5        30.08S
AMHERST 1NE      N/A     73  67  79 SE8       30.07R
BOOTLEG 11WNW    N/A     77  61  56 NE8       30.13S
CANADIAN 6E      N/A     84  66  54 SE6       30.00R
CAPROCK CYN SP   N/A     80  68  65 SE7       30.03R
CHILDRESS 2NNE   N/A     80  69  68 SE7       29.99S
CLARENDON 2WSW   N/A     82  64  54 S10       30.03R
CLAUDE 12SW      N/A     76  65  70 SE6       30.06S
DIMMITT 2NE      N/A     75  66  75 SE7       30.08S
FLOYDADA 2NNE    N/A     76  67  74 SE5       30.05S
FRIONA 2NE       N/A     77  65  68 E8        30.10R
GOODLETT 3W      N/A     82  67  60 S8        29.97S
HART 3N          N/A     76  66  73 E6        30.07S
HEREFORD 2NW     N/A     78  62  58 E8        30.08S
MCLEAN 1E        N/A     82  64  54 E7        30.02R
MEMPHIS 1NE      N/A     82  68  64 E9        29.99R
MULESHOE 2SSW    N/A     76  66  71 E12       30.07S
OLTON 6S         N/A     76  65  69 SE8       30.06S
PALO DURO SP     N/A     80  64  57 S1        30.08R
PAMPA 2E         N/A     78  64  60 SE6       30.05S
PLAINVIEW 1S     N/A     74  68  81 E5        30.05F
SILVERTON 7ESE   N/A     78  66  65 S6        30.05S
TULIA 2ENE       N/A     77  66  68 SE9       30.06S
TURKEY 2WSW      N/A     82  70  68 SE8       30.01R
UMBARGER 3NNE    N/A     79  64  60 E5        30.09R
$$

TXZ033>036-039>041-045>048-210100
TEXAS TECH WEST TEXAS MESONET/SOUTH PLAINS

CITY           SKY/WX    TMP DP  RH WIND       PRES   REMARKS
AIKEN 3WSW       N/A     76  68  78 SE6       30.07S
ANDREWS 2NE      N/A     76  69  79 E7        30.01S
ANTON 6SSW       N/A     74  67  79 E8        30.05S
BROWNFIELD 2S    N/A     70  68  93 E9        30.05R
DENVR CTY 7WNW   N/A     74  64  70 NE8       30.04S
GAIL 2ESE        N/A     75  69  82 E7        30.01R
LAMESA 2SE       N/A     72  69  92 E7        30.03S
LEVELLAND 4S     N/A     72  66  80 E7        30.06R
LUBBOCK 3WNW     N/A     76  66  72 E9        30.05S
MORTON 1ENE      N/A     73  66  78 E12       30.07R
ODONNELL 1N      N/A     71  68  89 E8        30.04R
PLAINS 3N        N/A     73  68  83 E12       30.06R
RALLS 1SE        N/A     76  68  78 S6        30.05F
REESE CENTER     N/A     74  66  78 E8        30.04F
SEAGRAVES 1SW    N/A     72  68  87 E12       30.04R
SEMINOLE 2NNE    N/A     74  69  83 NE14      30.02S
SLATON 2NE       N/A     74  67  79 E9        30.04F
SNYDER 3E        N/A     78  70  76 E7        30.01R
SUNDOWN 8SW      N/A     73  68  84 NE9       30.06S
TAHOKA 3NNE      N/A     72  67  85 E8        30.03S
WOLFFORTH 6SSW   N/A     73  69  86 E9        30.05R
$$

TXZ031-032-036>038-042>044-210100-
TEXAS TECH WEST TEXAS MESONET/ROLLING PLAINS

CITY           SKY/WX    TMP DP  RH WIND       PRES   REMARKS
ASPERMONT 3NE    N/A     80  71  71 E3        29.98S
GRAHAM 5SSW      N/A     74  68  82 E9        30.03R
GUTHRIE 10WSW    N/A     79  70  74 E7        29.99S
HASKELL 1NW      N/A     82  67  60 E3        29.97R
JAYTON 1SSE      N/A     76  70  81 SE7       30.00R
KNOX CITY 3NW    N/A     80  69  68 E5        29.98R
LK A HENRY 1NW   N/A     78  70  76 E5        30.01R
NORTHFIELD 1S    N/A     80  71  71 S8        29.99S
ODELL 4ENE       N/A     84  69  60 E6        29.97R
PADUCAH 10SW     N/A     79  69  71 SE6       30.00R
POST 1NE         N/A     76  68  76 E5        30.02S
RRING SPRGS 3N   N/A     76  71  83 E6        30.02S
SEYMOUR 3NW      N/A     79  71  75 W5        29.96S
SPUR 1W          N/A     77  69  76 E9        30.01S
WEINERT 2NNE     N/A     82  71  69 E2        29.97S
WHITE RVR 6NE    N/A     78  70  77 S5        30.02S
$$

TXZ052-054-060>062-072-078-127-140-154-169-210100-
TEXAS TECH WEST TEXAS MESONET/PERMIAN BASIN/
CONCHO VALLEY/BIG COUNTRY/EDWARDS PLATEAU

CITY           SKY/WX    TMP DP  RH WIND       PRES   REMARKS
COYANOSA 2N      N/A     81  70  68 E10       29.96R
JUNCTION 1SSW    N/A     84  68  58 E3        29.96R
MERTZON 3NNE     N/A     75  71  87 CALM      30.00R
SAN ANGELO 7NW   N/A     81  68  65 E9        29.98R
STRLNG CT 4WSW   N/A     79  71  75 E10       30.00R
ST LAWRNCE 5SW   N/A     78  70  76 SE12      30.00S
SWEETWATR 11SW   N/A     78  70  76 E6        30.02S
WALL 1E          N/A     80  70  71 E9G20     29.98R
$$

TXZ055-058-074-075-080-082-210100-
TEXAS TECH WEST TEXAS MESONET/FAR WEST/SOUTHWEST MOUNTAINS/TRANS PECOS

CITY           SKY/WX    TMP DP  RH WIND       PRES   REMARKS
GUADLPE MTN NP   N/A     68  65  89 NE6       30.16S
$$


USA.gov is the U.S. government's official web portal to all federal, state and local government web resources and services.